📊 Raw Sensor Data
Showing records 33451 to 33475 of 84,775 total
| ID | Distance (ft) | Battery V | Battery A | Int Temp (°F) | Int Humid (%) | Ext Temp (°F) | Solar V | RSSI | SNR | Time Stamp |
|---|---|---|---|---|---|---|---|---|---|---|
| 51337 | 15.2 | 4.02 | 5 | 103 | 45 | 90 | 5.10 | -73 | 7 | 09/07/2025 04:30 PM |
| 51336 | 15.3 | 4.00 | 5 | 104 | 44 | 90 | 5.10 | -73 | 8 | 09/07/2025 04:15 PM |
| 51335 | 15.3 | 4.00 | 5 | 105 | 42 | 87 | 5.10 | -73 | 8 | 09/07/2025 04:00 PM |
| 51334 | 15.1 | 4.00 | 0 | 103 | 43 | 91 | 5.10 | -72 | 8 | 09/07/2025 03:45 PM |
| 51333 | 15.2 | 4.00 | 0 | 103 | 41 | 90 | 5.10 | -74 | 8 | 09/07/2025 03:30 PM |
| 51332 | 15.2 | 4.02 | 5 | 102 | 41 | 87 | 5.10 | -71 | 8 | 09/07/2025 03:15 PM |
| 51331 | 15.2 | 4.01 | 5 | 99 | 42 | 85 | 5.10 | -72 | 8 | 09/07/2025 03:00 PM |
| 51330 | 15.2 | 4.00 | 5 | 98 | 41 | 85 | 5.10 | -73 | 7 | 09/07/2025 02:45 PM |
| 51329 | 15.2 | 4.00 | 5 | 97 | 40 | 85 | 5.10 | -73 | 8 | 09/07/2025 02:15 PM |
| 51328 | 15.3 | 4.00 | 0 | 95 | 41 | 83 | 5.10 | -73 | 8 | 09/07/2025 02:00 PM |
| 51327 | 15.1 | 4.09 | 5 | 93 | 41 | 83 | 5.10 | -73 | 8 | 09/07/2025 01:45 PM |
| 51326 | 15.1 | 4.00 | 0 | 93 | 41 | 80 | 5.10 | -73 | 8 | 09/07/2025 01:30 PM |
| 51325 | 15.2 | 4.04 | 0 | 93 | 41 | 81 | 5.10 | -75 | 8 | 09/07/2025 01:15 PM |
| 51324 | 15.2 | 4.00 | 6 | 93 | 40 | 84 | 5.10 | -74 | 8 | 09/07/2025 01:00 PM |
| 51323 | 15.1 | 4.00 | 0 | 91 | 40 | 82 | 5.10 | -74 | 8 | 09/07/2025 12:45 PM |
| 51322 | 14.7 | 3.99 | 0 | 89 | 40 | 80 | 5.10 | -74 | 8 | 09/07/2025 12:30 PM |
| 51321 | 15.2 | 4.00 | 6 | 87 | 41 | 80 | 5.10 | -74 | 8 | 09/07/2025 12:15 PM |
| 51320 | 15.2 | 4.00 | 6 | 86 | 41 | 84 | 5.10 | -74 | 8 | 09/07/2025 12:00 PM |
| 51319 | 15.2 | 4.00 | 6 | 84 | 41 | 79 | 5.10 | -73 | 8 | 09/07/2025 11:45 AM |
| 51318 | 15.1 | 3.99 | 0 | 83 | 41 | 76 | 5.10 | -74 | 8 | 09/07/2025 11:30 AM |
| 51317 | 15.2 | 3.99 | 6 | 81 | 41 | 80 | 5.10 | -74 | 7 | 09/07/2025 11:15 AM |
| 51316 | 15.2 | 3.99 | 0 | 79 | 41 | 80 | 5.10 | -74 | 7 | 09/07/2025 11:00 AM |
| 51315 | 15.2 | 3.99 | 6 | 78 | 41 | 78 | 5.10 | -74 | 7 | 09/07/2025 10:45 AM |
| 51314 | 14.6 | 3.99 | 0 | 77 | 41 | 72 | 5.10 | -74 | 8 | 09/07/2025 10:30 AM |
| 51313 | 15.2 | 3.99 | 6 | 76 | 41 | 78 | 5.10 | -74 | 8 | 09/07/2025 10:15 AM |